Location: Hanford
(43.0741°N, 93.1416°W)
Time: 21:29:44
(UTC+00:00)

Daily predictions for brighter satellites

Satellite Brightness Start Highest point End
(mag) Time Altitude Azimuth Time Altitude Azimuth Time Altitude Azimuth
Cosmos 2237 Rocket 2.6 12:00:23 10° SSW 12:05:59 67° ESE 12:11:37 10° NNE
Cosmos 1933 4.0 12:06:17 23° NW 12:07:55 32° W 12:11:26 10° SSW
ERS-2 1.4 12:05:45 10° NNE 12:08:42 89° ESE 12:11:36 10° SSW
ATLAS 3B R/B 4.0 12:05:56 18° WNW 12:08:47 23° NNW 12:14:33 10° NNE
CZ-4C R/B 4.0 12:03:01 10° NNW 12:09:35 39° NE 12:17:22 10° ESE
SAR-Lupe-2 3.9 12:06:15 10° NNE 12:09:49 66° ESE 12:13:22 10° S
PSLV R/B 3.5 12:07:37 10° N 12:11:53 62° WNW 12:16:05 10° SSW
Cosmos 2322 4.3 12:10:00 10° WSW 12:15:09 35° NW 12:20:20 10° N
Cosmos 1862 3.5 12:12:15 10° SSW 12:15:54 41° WNW 12:19:35 10° N
COSMO-SKYMED 1 3.5 12:12:11 10° SSW 12:15:55 28° W 12:18:43 15° NW
Cosmos 2151 2.8 12:11:48 10° SSW 12:15:58 77° W 12:20:13 10° N
Meteor 2-3 Rocket 4.3 12:11:29 10° SW 12:16:30 34° WNW 12:21:33 10° N
SeaSat 1 4.0 12:13:22 10° ESE 12:17:41 32° NE 12:22:02 10° N
USA 215 3.2 12:14:06 10° NE 12:20:39 83° NW 12:27:10 10° SW
Meteor 1-31 Rocket 4.0 12:17:30 10° NNE 12:21:10 45° E 12:24:48 10° S
SJ-7 4.4 12:19:38 10° NNE 12:23:45 86° WNW 12:27:50 10° SSW
BlueWalker 3 3.9 12:25:35 12° WSW 12:27:05 15° SW 12:29:15 10° SSW
SMAP 3.3 12:29:39 10° NNE 12:34:20 77° ESE 12:38:59 10° S
Cosmos 1842 Rocket 3.6 12:31:41 10° NNW 12:36:05 62° W 12:40:27 10° S
H-2A R/B 3.4 12:36:39 10° NNW 12:39:28 15° WNW 12:42:19 10° W
Helios 1B rocket 2.7 12:38:24 10° N 12:42:10 42° WNW 12:45:55 10° SW
CENTAUR R/B 3.5 12:34:46 10° NW 12:43:08 75° NE 12:52:22 10° SE
Cosmos 2219 Rocket 3.7 12:40:15 10° W 12:43:45 16° NW 12:47:16 10° N
Cosmos 1437 Rocket 3.2 12:41:07 10° SW 12:44:32 35° WNW 12:47:57 10° N
CZ-4B R/B 3.9 12:40:55 10° NNE 12:44:55 89° ESE 12:49:03 10° SSW
DELTA 2 DEB (DPAF) 4.5 12:47:11 10° S 12:51:16 43° W 12:55:23 10° NNW
USA 267 3.5 12:47:50 10° ESE 12:54:21 75° NE 13:00:54 10° NW
Cosmos 1302 Rocket 4.1 12:49:55 10° NNW 12:55:03 62° WSW 13:00:11 10° S
Cosmos 1943 Rocket 2.2 12:49:40 10° NNW 12:55:15 88° WSW 13:00:44 10° SSE
Cosmos 1461 3.3 12:52:05 10° SSW 12:56:32 78° ESE 13:00:58 10° NE
SL-16 R/B 3.0 12:56:43 10° S 13:02:17 59° ESE 13:07:52 10° NNE
NOSS 3-4 (A) 4.2 22:53:08 10° NW 23:00:14 81° SW 23:08:22 10° SSE
NOSS 3-4 (C) 4.2 22:53:17 10° NW 23:00:19 81° WSW 23:08:21 10° SSE
PSLV R/B 3.8 22:59:46 10° S 23:03:59 75° WSW 23:08:17 10° NNW
CORIOLIS 4.5 23:00:30 10° SE 23:05:31 43° ENE 23:10:36 10° N
USA 234 3.9 23:00:59 10° ENE 23:07:06 41° SE 23:13:11 10° SSW
Cosmos 1140 Rocket 4.1 23:04:09 10° N 23:08:51 34° ENE 23:13:30 10° SE
Cosmos 1076 Rocket 3.5 23:05:21 10° N 23:09:43 73° E 23:14:02 10° SSE
SJ-7 4.4 23:06:25 10° SSE 23:10:21 63° ENE 23:14:20 10° N
Cosmos 2227 Rocket 3.7 23:05:46 10° WSW 23:10:48 32° NW 23:15:53 10° N
Cosmos 1602 4.1 23:09:02 10° N 23:12:34 39° ENE 23:16:06 10° SSE
Nadezhda 4 Rocket 4.2 23:11:24 10° SSE 23:17:16 49° E 23:23:07 10° NNE
ARGOS 4.3 23:12:45 10° S 23:18:01 50° W 23:23:18 10° NNW
Cosmos 1782 4.2 23:17:51 10° SE 23:20:34 18° E 23:23:18 10° NE
Cosmos 1500 3.0 23:18:40 10° N 23:22:13 84° W 23:25:44 10° S
DMSP B5D2-2 4.1 23:18:31 10° NNE 23:23:45 78° ESE 23:28:58 10° S
Cosmos 1603 4.2 23:21:18 10° N 23:26:37 38° ENE 23:31:50 10° SE
SL-8 R/B 3.7 23:22:06 10° WNW 23:26:53 75° NNE 23:31:40 10° ESE
Helios 1B rocket 3.0 23:24:03 10° S 23:27:56 59° W 23:31:50 10° NNW
Cosmos 1812 Rocket 4.0 23:24:29 10° SSE 23:28:31 39° E 23:32:35 10° NNE
Helios 1A 3.8 23:25:23 10° NE 23:29:06 31° E 23:32:45 10° SSE
ISS -3.4 23:27:18 10° WNW 23:30:38 67° SW 23:33:57 10° SE
CZ-4B R/B 3.6 23:27:22 10° SSE 23:30:52 56° ENE 23:34:26 10° N
CZ-4B R/B 3.8 23:32:25 10° SE 23:37:08 40° ENE 23:41:45 10° N
SMAP 3.0 23:33:27 10° SSE 23:38:06 86° ENE 23:42:47 10° NNW
SL-16 R/B 3.9 23:34:17 10° NW 23:39:28 37° WSW 23:44:36 10° S
NOAA 6 4.4 23:42:26 10° SE 23:47:10 39° ENE 23:51:55 10° N
Cosmos 1943 3.1 23:44:41 10° NNW 23:50:22 82° ENE 23:56:00 10° SSE
USA 276 3.1 23:48:23 10° WNW 23:50:28 24° NNW 23:51:20 20° NNE
APEX 2.8 23:51:43 10° SW 23:54:44 63° WNW 23:56:41 17° NNE
